Kuala Lumpur Aziz, Malaysia

8:17 AM +08 on September 22, 2017 (GMT +0800)
Sultan Abdul Aziz Shah-Subang

Weather History for WMSA - March, 2014

Change the Weather History Date:

Friday, March 7, 2014

  Actual Average Record
Temperature  
Mean Temperature 86 °F -  
Max Temperature 96 °F - - ()
Min Temperature 77 °F - - ()
Cooling Degree Days 22    
Growing Degree Days 36 (Base 50)    
Moisture  
Dew Point 70 °F    
Average Humidity 61    
Maximum Humidity 84    
Minimum Humidity 36    
Precipitation  
Precipitation 0.00 in - - ()
Sea Level Pressure  
Sea Level Pressure 29.86 in    
Wind  
Wind Speed 3 mph ()    
Max Wind Speed 8 mph    
Max Gust Speed -    
Visibility 5.2 miles    
Events      
T = Trace of Precipitation, MM = Missing Value Source: Averaged Metar Reports

Daily Weather History Graph

Daily Weather History Graph

Search for Another Location

Airport or City:

Trip Planner

Search our weather history database for the weather conditions in past years. The results will help you decide how hot, cold, wet, or windy it might be!

Date:

Astronomy

Mar. 07, 2014 Rise Set
Actual Time 7:22 AM +08 7:27 PM +08
Civil Twilight 7:02 AM +08 7:47 PM +08
Nautical Twilight 6:37 AM +08 8:11 PM +08
Astronomical Twilight 6:13 AM +08 8:36 PM +08
Moon 12:07 PM +08 (3/7) No Moon Set
Length of Visible Light 12h 45m
Length of Day
12h 04m
Waxing Crescent, 36% of the Moon is Illuminated
Mar 7
Waxing Crescent
Mar 8
First Quarter
Mar 17
Full
Mar 24
Last Quarter
Mar 31
New

Hourly Weather History & Observations

Time (+08) Temp. Heat Index Dew Point Humidity Pressure Visibility Wind Dir Wind Speed Gust Speed Precip Events Conditions
12:00 AM 82.4 °F 89.5 °F 75.2 °F 79% 29.89 in 3.1 mi NW 1.2 mph - N/A   Haze
1:00 AM 80.6 °F 86.2 °F 75.2 °F 84% 29.89 in 3.1 mi NW 1.2 mph - N/A   Haze
2:00 AM 80.6 °F 85.4 °F 73.4 °F 79% 29.86 in 3.1 mi West 1.2 mph - N/A   Haze
3:00 AM 78.8 °F - 73.4 °F 83% 29.86 in 3.1 mi ENE 1.2 mph - N/A   Haze
4:00 AM 77.0 °F - 71.6 °F 83% 29.83 in 3.1 mi ENE 1.2 mph - N/A   Haze
5:00 AM 77.0 °F - 69.8 °F 78% 29.83 in 3.7 mi NE 2.3 mph - N/A   Mostly Cloudy
6:00 AM 77.0 °F - 68.0 °F 74% 29.86 in 5.6 mi East 3.5 mph - N/A   Mostly Cloudy
7:00 AM 77.0 °F - 68.0 °F 74% 29.86 in 5.6 mi ENE 1.2 mph - N/A   Mostly Cloudy
8:00 AM 78.8 °F - 66.2 °F 65% 29.89 in 6.2 mi East 3.5 mph - N/A   Mostly Cloudy
9:00 AM 80.6 °F 82.7 °F 66.2 °F 61% 29.92 in 6.2 mi East 4.6 mph - N/A   Mostly Cloudy
10:00 AM 84.2 °F 87.3 °F 68.0 °F 58% 29.92 in 6.2 mi NE 3.5 mph - N/A   Mostly Cloudy
11:00 AM 87.8 °F 91.4 °F 68.0 °F 52% 29.92 in 6.2 mi ENE 5.8 mph - N/A   Mostly Cloudy
12:00 PM 91.4 °F 94.0 °F 66.2 °F 43% 29.92 in 6.2 mi East 6.9 mph - N/A   Mostly Cloudy
1:00 PM 93.2 °F 97.7 °F 68.0 °F 44% 29.89 in 6.2 mi NNW 3.5 mph - N/A   Mostly Cloudy
2:00 PM 95.0 °F 98.5 °F 66.2 °F 39% 29.86 in 6.2 mi NE 4.6 mph - N/A   Mostly Cloudy
3:00 PM 95.0 °F 98.5 °F 66.2 °F 39% 29.80 in 6.2 mi NNE 5.8 mph - N/A   Mostly Cloudy
4:00 PM 95.0 °F 97.0 °F 64.4 °F 36% 29.80 in 6.2 mi East 4.6 mph - N/A   Mostly Cloudy
5:00 PM 96.8 °F 101.8 °F 68.0 °F 39% 29.77 in 6.2 mi ESE 4.6 mph - N/A   Mostly Cloudy
6:00 PM 93.2 °F 100.5 °F 71.6 °F 49% 29.77 in 6.2 mi SSW 8.1 mph - N/A   Mostly Cloudy
7:00 PM 89.6 °F 94.7 °F 69.8 °F 52% 29.80 in 6.2 mi SSW 5.8 mph - N/A   Mostly Cloudy
8:00 PM 86.0 °F 91.8 °F 71.6 °F 62% 29.83 in 5.0 mi SW 3.5 mph - N/A   Mostly Cloudy
9:00 PM 84.2 °F 88.4 °F 69.8 °F 62% 29.83 in 5.6 mi South 3.5 mph - N/A   Mostly Cloudy
10:00 PM 84.2 °F 89.6 °F 71.6 °F 66% 29.86 in 4.3 mi WSW 2.3 mph - N/A   Mostly Cloudy
11:00 PM 82.4 °F 87.2 °F 71.6 °F 70% 29.89 in 5.0 mi NNW 1.2 mph - N/A   Mostly Cloudy